Погода в Туринске

Погода в Туринске : погода сейчас, прогноз погоды и архив. Всё, что Вы хотите узнать о погоде в Туринске!

Хотите узнать прогноз погоды в Туринске? Тогда Вам сюда: Погода в Туринске

Поиск расширенной информации на нашем сайте:

Полезная информация: офисные блоки на выгодных условиях аренда офиса в бизнес парке Московский шелк У метро Спортивная

Другие новости

Новости СМИ2

Главная страница сайта

Новости сайта

02.10.2013

Напоминаем, что на нашем новом сайте вы можете получить высокодетализированные прогнозы погоды по пунктам России, СНГ и мира (включающие важные для авиации метеовеличины, такие как направление и скорость ветра, видимость, явления погоды, количество и форма облачности, нижняя и верхняя граница облачности), а также ознакомиться с разнообразными материалами по авиационной метеорологии и подборкой полезных ссылок на эту тему.

Сайт Метеоцентр.Азия посвящён разработке технологий оптимизации авиаметеорологического обслуживания, включая проектирование и перспективное создание нескольких автоматизированных авиаметеорологических систем:
- система выпуска высокодетальных прогностических карт явлений погоды для нижнего воздушного пространства по России и ближнему зарубежью;
- система верификации прогнозов TAF (выпускаемых синоптиками официальных АМСГ РФ и ближнего зарубежья) и AUTOTAF (выпускаемых сайтом Метеоцентр.Азия) - выявление ошибок, онлайн-сопоставление с фактической погодой METAR, автоматическое внесение коррективов в прогнозы при резком отклонении фактической погоды от прогноза, подсчёт оправдываемости прогнозов по элементам и в целом;
- система обработки, анализа и отображения авиаметеорологической информации для применения провайдерами метеорологической информации.

Рекомендуем: газовые плиты aeg

Погода в Туринске - сегодня

Время (UTC), дата Ветер
(°,м/с) 
Видим.   Явления Облачность Т
(°С)
Тd
(°С)
f(%) Тe
(°С)
Pmin
(гПа)
dP
(гПа)
Po
(мм)
O2
(г/м3)
Тmin Tmax R s Состояние
почвы
12 22.02.17 250 (З) 20000 м    10/10 600 м кучево-дожд. 
[Cb calv]
+3.8 -2 66 +3  1003.2  1.9  743  295           
15 22.02.17 260 (З) 1000 м    10/10 600 м кучево-дожд. 
[Cb calv]
+2.7 -2.4 69 +2  1005.3  2.1  744  297    +4.8       
18 22.02.17 240 (ЮЗ) 1000 м    10/10 600 м кучево-дожд. 
[Cb calv]
+2.3 -2.6 70 +2  1006.5  1.2  745  298           
21 22.02.17 230 (ЮЗ) 1000 м    10/10 600 м кучево-дожд. 
[Cb calv]
+2 -2.6 72 +1  1007.2  0.6  746  299           
00 23.02.17 220 (ЮЗ) 1000 м    6/0 верхняя 
[Ci fib]
+0.4 -4.3 71 1007.4  0.2  746  301           
03 23.02.17 210 (ЮЗ) 1000 м    6/0 средняя, верхняя 
[Ac trans|Ci fib]
-2.5 -6.3 75 -4  1007.6  746  304  -2.5      60  равномерный
мокрый или
старый снег
100% 
06 23.02.17 220 (ЮЗ) 20000 м    8/0 верхняя 
[Ci fib]
-0.1 -5.5 67 -1  1008  0.4  746  301  -2.7         
09 23.02.17 230 (ЮЗ) 2{10}  20000 м    6/0 верхняя 
[Ci fib]
+3 -4.9 56 +2  1007.8  746  298           
12 23.02.17 210 (ЮЗ) 20000 м    6/0 верхняя 
[Ci fib]
+0.1 -5.5 66 +1  1008  0.1  746  301           
15 23.02.17 200 (Ю) 1000 м    ясно 
-3.2 -8.4 67 -4  1007.5  -0.6  746  305    +3.6       
18 23.02.17 200 (Ю) 1000 м    10/0 верхняя 
[Ci fib]
-4.1 -8.9 69 -4  1007.8  0.2  746  306           
21 23.02.17 180 (Ю) 1000 м    4/0 верхняя 
[Ci fib]
-5.6 -8.9 78 -5  1008.2  0.3  746  308           
00 24.02.17 210 (ЮЗ) 1000 м    10/10 600 м 
[Sc diur, vesp]
-5.1 -8.2 79 -5  1008.6  0.4  747  307           
03 24.02.17 180 (Ю) 1000 м    10/10 600 м кучево-дожд. 
[Cb calv]
-5.4 -8.3 80 -5  1009.4  0.7  747  308  -6      58  равномерный
мокрый или
старый снег
100% 
06 24.02.17 160 (Ю) 20000 м    10/10 600 м 
[Sc]
-4.7 -8 78 -4  1010.3  748  307           
09 24.02.17 150 (ЮВ) 20000 м    10/0 средняя, верхняя 
[Ac trans|Ci fib]
-2.4 -6.8 72 -2  1011.1  0.9  749  305           
12 24.02.17 150 (ЮВ) 20000 м    10/0 средняя, верхняя 
[Ac trans|Ci fib]
-1.9 -6.4 71 -3  1011.5  0.4  749  305           
15 24.02.17 140 (ЮВ) 1000 м    10/0 средняя, верхняя 
[Ac trans|Ci fib]
-3.9 -7.5 76 -3  1012.1  0.5  749  307    -1.3       
18 24.02.17 150 (ЮВ) 1000 м    10/0 средняя 
[Ac trans]
-4.5 -7.9 77 -4  1012.6  0.4  750  308           
21 24.02.17 150 (ЮВ) 1000 м    6/0 верхняя 
[Ci fib]
-4.6 -7.7 79 -4  1012.7  0.2  750  308           
00 25.02.17 160 (Ю) 1000 м    ясно 
-7 -9.6 82 -7  1012.9  750  311           
03 25.02.17 150 (ЮВ) 20000 м    4/0 средняя 
[Ac trans]
-8.6 -10.5 86 -8  1012.5  -0.5  749  313  -8.6      58  равномерный
мокрый или
старый снег
100% 
06 25.02.17 150 (ЮВ) 20000 м    ясно 
-8.1 -11.2 78 -10  1011.6  -0.9  749  312  -9         
09 25.02.17 150 (ЮВ) 20000 м    6/0 верхняя 
[Ci fib]
-5.1 -10.5 66 -7  1009.8  -1.6  748  308           
12 25.02.17 160 (Ю) 20000 м    10/0 верхняя 
[Ci fib]
-4.6 -9.4 69 -6  1007.6  -2.1  746  307           
Время (UTC), дата Ветер
(°,м/с) 
Видим.   Явления Облачность Т
(°С)
Тd
(°С)
f(%) Тe
(°С)
Pmin
(гПа)
dP
(гПа)
Po
(мм)
O2
(г/м3)
Тmin Tmax R s Состояние
почвы

Для получения пояснительной информации подведите курсор к названию столбца.

ПОГОДА в Туринске - архив

Всё, что Вы хотите узнать о погоде в Туринске - удобно и подробно!

Выберите нужную дату (начиная с 1 января 2015* года) и нажмите кнопку "Найти".
Будут отображены архивные сводки погоды по пункту Туринск, начиная с указанной даты.


Отображать данные в формате CSV (для использования в таблицах Excel)


Внимание! Наш архив погоды предназначен исключительно для личного некоммерческого использования в познавательных целях. Если Вам необходимы официальные справки о состоянии погоды (для производственных, юридических, коммерческих и т.п. целей), обращайтесь в органы Росгидромета.

*Примечание: данная дата относится к архиву по метеостанциям СССР (Россия, СНГ, Балтия).
Архив по метеостанциям Зарубежной Европы и Азии (кроме Китая) хранится 10 дней, по другим регионам земного шара (Китай, Африка, Америка, Австралия, Океания) - 1 день.

Туринск - район местоположения метеостанции


Название, широта, долгота, высота метеостанции:
Туринск 58.1°ш. 63.7°д. 103 м над ур. моря [Российская Федерация]

Дополнительная информация

В oтличие oт бoльшинства пoгoдных сайтoв мы публикуем пoдрoбную метеoинфoрмацию в детальнoм прoфессиoнальнoм фoрмате.

Характеристики температуры и влажнoсти вoздуха измеряются на высoте 2 м в тени вдали oт зданий и деревьев.
Скoрoсть ветра измеряется на высoте 10 м (на урoвне рoста челoвека скoрoсть ветра ниже в 1.5-2 раза). Если метеoстанция нахoдится в гoрoде или в лесу, тo скoрoсть ветра занижена на 2-4 м/с пo сравнению с oткрытым местoм. Скoрoсть ветра над акватoриями крупных рек и oзёр, а также на вершинах хoлмoв на 2-5 м/с выше, чем в oбычных услoвиях.
Атмoсфернoе давление в разных тoчках местнoсти мoжет значительнo oтличаться oт давления на метеoстанции, в зависимoсти oт услoвий рельефа (при пoдъёме на 10 м давление пoнижается примернo на 1 мм рт.ст.).